Skip Page Navigation
NASA JPL Caltech
NASA Logo - Jet Propulsion Laboratory + View the NASA Portal
+ Center for Near-Earth Object Studies
JPL Home Earth Solar System Stars & Galaxies Technology
JPL Solar System Dynamics
BODIES ORBITS EPHEMERIDES TOOLS PHYSICAL DATA DISCOVERY FAQ SITE MAP
JPL Small-Body Database Browser
Search: [ help ]  
215913 (2005 JE34)
Classification: Main-belt Asteroid          SPK-ID: 2215913
Ephemeris | Orbit Diagram | Orbital Elements | Mission Design | Physical Parameters | Discovery Circumstances ]

[ show orbit diagram ]
Orbital Elements at Epoch 2459396.5 (2021-Jul-01.0) TDB
Reference: JPL 22 (heliocentric ecliptic J2000)
 Element Value Uncertainty (1-sigma)   Units 
e .1569969982018375 5.4285e-08  
a 2.539623887260678 1.0454e-08 au
q 2.14091056039907 1.4101e-07 au
i 4.75768936738725 4.09e-06 deg
node 255.0601104306963 6.0111e-05 deg
peri 315.1804545836408 6.0976e-05 deg
M 8.19188669612987 1.0555e-05 deg
tp 2459362.861705540921
(2021-May-28.36170554)
4.3295e-05 TDB
period 1478.265807923036
4.05
9.1275e-06
2.499e-08
d
yr
n .2435285982199643 1.5037e-09 deg/d
Q 2.938337214122287 1.2095e-08 au
  Orbit Determination Parameters
   # obs. used (total)      444  
   data-arc span      7332 days (20.07 yr)  
   first obs. used      2001-05-15  
   last obs. used      2021-06-11  
   planetary ephem.      DE441  
   SB-pert. ephem.      SB441-N16  
   condition code      0  
   norm. resid. RMS      .50163  
   source      ORB  
   producer      Otto Matic  
   solution date      2021-Jul-09 03:33:10  

Additional Information
 Earth MOID = 1.13893 au 
 Jupiter MOID = 2.04686 au 
 T_jup = 3.424 
[ show covariance matrix ]

Ephemeris | Orbit Diagram | Orbital Elements | Mission Design | Physical Parameters | Discovery Circumstances ]

Physical Parameter Table
Parameter Symbol Value Units Sigma Reference Notes
absolute magnitude H 16.44   n/a MPCxxxxx  

215913 (2005 JE34)          Discovered 2005-May-04 by NEAT at Palomar
Reference: 20090607/Numbers.arcLast Updated: 2009-06-08
Ephemeris | Orbit Diagram | Orbital Elements | Mission Design | Physical Parameters | Discovery Circumstances ]
ABOUT SSD CREDITS/AWARDS PRIVACY/COPYRIGHT GLOSSARY LINKS
FirstGov 2021-Jul-29 05:47 UT
(server date/time)  
NASA Home Page
Site Manager:   Ryan S. Park
Webmaster  Alan B. Chamberlin